Orbital elements:
2015 XW377 PHA, Earth MOID = 0.0350 AU
Epoch 2016 Jan. 13.0 TT = JDT 2457400.5 MPC
M 346.70438 (2000.0) P Q
n 0.24670784 Peri. 9.32376 -0.88702417 -0.44264386
a 2.5177586 Node 143.47443 +0.40812738 -0.88469999
e 0.5954336 Incl. 12.75015 +0.21591703 -0.14619280
P 4.00 H 21.1 G 0.15 U 6